Location: Barrialito
(10.3588°N, 66.9747°W)
Time: 02:20:16
(UTC+00:00)

H-2A R/B - Pass Details

Date: 09 July 2022
Orbit: 732 x 837 km, 98.2° (Epoch: 16 August)

Event Time Altitude Azimuth Distance (km) Brightness Sun altitude
Rises 23:13:09 0° 202° (SSW) 3,363 5.3 -5.1°
Reaches altitude 10° 23:16:24 10° 223° (SW) 2,439 4.9 -5.9°
Maximum altitude 23:19:41 16° 260° (W) 2,027 5.1 -6.6°
Drops below altitude 10° 23:22:59 10° 298° (WNW) 2,443 6.4 -7.3°
Sets 23:26:15 0° 319° (NW) 3,373 6.7 -8.1°
